Location: Friedrichshafen
(47.6598°N, 9.4819°E)
Time: 22:54:37
(UTC+02:00)

ISS - Visible Passes

Search period start: 25 September 2020 00:00
Search period end: 05 October 2020 00:00
Orbit: 419 x 420 km, 51.6° (Epoch: 26 September)

Date Brightness Start Highest point End Pass type
(mag) Time Alt. Az. Time Alt. Az. Time Alt. Az.
25 Sep -2.8 20:58:10 10° WNW 21:01:23 40° N 21:02:08 34° NNE visible
26 Sep -2.8 20:10:39 10° WNW 20:13:53 41° N 20:16:31 14° ENE visible
26 Sep -1.5 21:47:46 10° WNW 21:49:28 26° NW 21:49:28 26° NW visible
27 Sep -3.1 21:00:20 10° WNW 21:03:36 45° N 21:03:50 44° NNE visible
28 Sep -2.9 20:12:52 10° WNW 20:16:06 41° N 20:18:11 19° ENE visible
28 Sep -1.3 21:49:46 10° WNW 21:51:09 22° WNW 21:51:09 22° WNW visible
29 Sep -3.5 21:02:21 10° WNW 21:05:30 64° N 21:05:30 64° N visible
30 Sep -3.4 20:14:55 10° WNW 20:18:14 53° NNE 20:19:53 26° E visible
30 Sep -0.9 21:51:49 10° WNW 21:52:51 18° W 21:52:51 18° W visible
01 Oct -3.1 19:27:27 10° WNW 19:30:44 45° N 19:34:00 10° E visible
01 Oct -3.2 21:04:18 10° WNW 21:07:15 56° WSW 21:07:15 56° WSW visible
02 Oct -3.8 20:16:50 10° WNW 20:20:14 90° SSE 20:21:42 31° ESE visible
02 Oct -0.5 21:54:15 10° W 21:54:40 12° W 21:54:40 12° W visible
03 Oct -3.7 19:29:22 10° WNW 19:32:45 68° NNE 19:36:06 10° ESE visible
03 Oct -2.1 21:06:27 10° W 21:09:10 27° SW 21:09:10 27° SW visible
04 Oct -2.8 20:18:48 10° WNW 20:22:00 42° SW 20:23:45 22° SSE visible
